This demonstration page uses our WeatherBlox Daily Observations layout. Learn more.

Left ArrowRight Arrow

41.12389, -100.76542

Hourly Observations for September 18, 2016

Temp ( °F °C ) Dew Point ( °F °C ) Humidity (%) Winds ( mph kmh ) Pressure ( in mb ) Visibility ( mi km ) Precip ( " mm )
12:53 am 00:53 Clear 47 8.3 43 6.1 86 86 WNW 3 6 29.94 1014 10 16 0.00 0.00
1:53 am 01:53 Clear 46 7.8 43 6.1 89 89 WNW 5 7 29.93 1013 10 16 0.00 0.00
2:53 am 02:53 Clear 47 8.3 45 7.2 93 93 NW 7 11 29.92 1013 10 16 0.00 0.00
3:53 am 03:53 Clear 48 8.9 46 7.8 93 93 W 5 7 29.91 1013 10 16 0.00 0.00
4:53 am 04:53 Clear 46 7.8 44 6.7 93 93 NW 3 6 29.91 1013 10 16 0.00 0.00
5:53 am 05:53 Clear 46 7.8 44 6.7 93 93 Calm 29.91 1013 9 14 0.00 0.00
6:13 am 06:13 Clear with Mist and Fog 44 6.7 42 5.6 93 93 Calm 29.97 1015 3 4 0.00 0.00
6:20 am 06:20 Clear with Mist and Fog 45 7 43 6 93 93 Calm 29.97 1015 3 5 0.00 0.00
6:53 am 06:53 Clear 44 6.7 41 5 89 89 Calm 29.91 1013 8 13 0.00 0.00
7:53 am 07:53 Sunny 49 9.4 46 7.8 90 90 SSE 3 6 29.91 1013 10 16 0.00 0.00
8:53 am 08:53 Sunny 55 12.8 50 10 83 83 SSW 5 7 29.90 1013 10 16 0.00 0.00
9:53 am 09:53 Sunny 63 17.2 51 10.6 65 65 W 8 13 29.90 1013 10 16 0.00 0.00
10:53 am 10:53 Sunny 71 21.7 51 10.6 49 49 W 8 13 29.89 1012 10 16 0.00 0.00
11:53 am 11:53 Sunny 80 26.7 46 7.8 30 30 W 12 19 29.86 1011 10 16 0.00 0.00
12:53 pm 12:53 Sunny 85 29.4 42 5.6 22 22 W 15 24 29.84 1010 10 16 0.00 0.00
1:53 pm 13:53 Sunny 89 31.7 41 5 19 19 W 13 20 29.81 1010 10 16 0.00 0.00
2:53 pm 14:53 Sunny 91 32.8 39 3.9 16 16 W 17 28 29.79 1009 10 16 0.00 0.00
3:53 pm 15:53 Sunny 92 33.3 40 4.4 16 16 W 17 28 29.77 1008 10 16 0.00 0.00
4:53 pm 16:53 Sunny 92 33.3 41 5 17 17 W 15 24 29.77 1008 10 16 0.00 0.00
5:53 pm 17:53 Sunny 91 32.8 44 6.7 20 20 W 9 15 29.77 1008 10 16 0.00 0.00
6:53 pm 18:53 Sunny 87 30.6 56 13.3 35 35 Calm 29.78 1009 10 16 0.00 0.00
7:53 pm 19:53 Clear 72 22.2 54 12.2 53 53 Calm 29.81 1010 10 16 0.00 0.00
8:53 pm 20:53 Clear 63 17.2 52 11.1 68 68 Calm 29.84 1011 10 16 0.00 0.00
9:53 pm 21:53 Clear 60 15.6 49 9.4 67 67 E 5 7 29.85 1011 10 16 0.00 0.00
10:53 pm 22:53 Clear 57 13.9 48 8.9 72 72 ENE 5 7 29.85 1011 10 16 0.00 0.00
11:53 pm 23:53 Clear 56 13.3 47 8.3 72 72 ENE 3 6 29.83 1010 10 16 0.00 0.00

Powered by AerisWeather